Time,TemperatureF,DewpointF,PressureIn,WindDirection,WindDirectionDegrees,WindSpeedMPH,WindSpeedGustMPH,Humidity,HourlyPrecipIn,Conditions,Clouds,dailyrainin,SoftwareType,DateUTC
2013-07-01 00:01:00,69.0,50.0,29.86,ESE,110,3.0,-999.0,51,-99.99,,,-99.99,,2013-07-01 05:01:00,
2013-07-01 00:11:00,69.0,51.0,29.86,NNE,29,2.0,-999.0,52,-99.99,,,-99.99,,2013-07-01 05:11:00,
2013-07-01 00:22:00,69.0,51.0,29.86,NNE,29,2.0,-999.0,52,-99.99,,,-99.99,,2013-07-01 05:22:00,
2013-07-01 00:33:00,68.0,50.0,29.86,North,2,3.0,-999.0,53,-99.99,,,-99.99,,2013-07-01 05:33:00,
2013-07-01 00:42:00,68.0,50.0,29.86,NNE,33,2.0,-999.0,52,-99.99,,,-99.99,,2013-07-01 05:42:00,
2013-07-01 00:52:00,68.0,50.0,29.86,NNE,33,2.0,-999.0,52,-99.99,,,-99.99,,2013-07-01 05:52:00,
2013-07-01 01:02:00,68.0,49.0,29.87,North,360,2.0,-999.0,50,-99.99,,,-99.99,,2013-07-01 06:02:00,
2013-07-01 01:12:00,67.0,48.0,29.87,NNE,27,3.0,-999.0,50,-99.99,,,-99.99,,2013-07-01 06:12:00,
2013-07-01 01:24:00,67.0,48.0,29.87,NNE,27,3.0,-999.0,50,-99.99,,,-99.99,,2013-07-01 06:24:00,
2013-07-01 01:33:00,67.0,48.0,29.87,North,1,2.0,-999.0,51,-99.99,,,-99.99,,2013-07-01 06:33:00,
2013-07-01 01:43:00,66.0,50.0,29.87,NNW,342,3.0,-999.0,57,-99.99,,,-99.99,,2013-07-01 06:43:00,
2013-07-01 01:53:00,66.0,50.0,29.87,NNW,342,3.0,-999.0,57,-99.99,,,-99.99,,2013-07-01 06:53:00,
2013-07-01 02:01:00,65.0,49.0,29.87,North,3,2.0,-999.0,57,-99.99,,,-99.99,,2013-07-01 07:01:00,
2013-07-01 02:11:00,65.0,50.0,29.86,North,356,2.0,-999.0,58,-99.99,,,-99.99,,2013-07-01 07:11:00,
2013-07-01 02:22:00,65.0,50.0,29.86,North,356,2.0,-999.0,58,-99.99,,,-99.99,,2013-07-01 07:22:00,
2013-07-01 02:33:00,65.0,50.0,29.86,NNE,30,4.0,-999.0,59,-99.99,,,-99.99,,2013-07-01 07:33:00,
2013-07-01 02:43:00,65.0,52.0,29.86,North,351,3.0,-999.0,62,-99.99,,,-99.99,,2013-07-01 07:43:00,
2013-07-01 02:53:00,65.0,52.0,29.86,North,351,3.0,-999.0,62,-99.99,,,-99.99,,2013-07-01 07:53:00,
2013-07-01 03:01:00,64.0,51.0,29.86,North,360,3.0,-999.0,63,-99.99,,,-99.99,,2013-07-01 08:01:00,
2013-07-01 03:11:00,64.0,51.0,29.86,NE,39,2.0,-999.0,63,-99.99,,,-99.99,,2013-07-01 08:11:00,
2013-07-01 03:22:00,64.0,51.0,29.86,NE,39,2.0,-999.0,63,-99.99,,,-99.99,,2013-07-01 08:22:00,
2013-07-01 03:33:00,64.0,51.0,29.86,NE,42,2.0,-999.0,63,-99.99,,,-99.99,,2013-07-01 08:33:00,
2013-07-01 03:42:00,64.0,51.0,29.86,North,356,2.0,-999.0,62,-99.99,,,-99.99,,2013-07-01 08:42:00,
2013-07-01 03:52:00,64.0,51.0,29.86,North,356,2.0,-999.0,62,-99.99,,,-99.99,,2013-07-01 08:52:00,
2013-07-01 04:02:00,64.0,51.0,29.86,North,3,1.0,-999.0,62,-99.99,,,-99.99,,2013-07-01 09:02:00,
2013-07-01 04:11:00,63.0,51.0,29.86,NNE,20,1.0,-999.0,64,-99.99,,,-99.99,,2013-07-01 09:11:00,
2013-07-01 04:22:00,63.0,51.0,29.86,NNE,20,1.0,-999.0,64,-99.99,,,-99.99,,2013-07-01 09:22:00,
2013-07-01 04:34:00,63.0,52.0,29.86,North,352,2.0,-999.0,67,-99.99,,,-99.99,,2013-07-01 09:34:00,
2013-07-01 04:43:00,62.0,52.0,29.86,North,4,2.0,-999.0,70,-99.99,,,-99.99,,2013-07-01 09:43:00,
2013-07-01 04:53:00,62.0,52.0,29.86,North,4,2.0,-999.0,70,-99.99,,,-99.99,,2013-07-01 09:53:00,
2013-07-01 05:03:00,62.0,52.0,29.86,North,358,2.0,-999.0,69,-99.99,,,-99.99,,2013-07-01 10:03:00,
2013-07-01 05:11:00,62.0,52.0,29.86,North,357,2.0,-999.0,69,-99.99,,,-99.99,,2013-07-01 10:11:00,
2013-07-01 05:22:00,62.0,52.0,29.86,North,357,2.0,-999.0,69,-99.99,,,-99.99,,2013-07-01 10:22:00,
2013-07-01 05:33:00,62.0,52.0,29.86,NNW,330,1.0,-999.0,69,-99.99,,,-99.99,,2013-07-01 10:33:00,
2013-07-01 05:42:00,62.0,52.0,29.86,NNW,337,1.0,-999.0,69,-99.99,,,-99.99,,2013-07-01 10:42:00,
2013-07-01 05:52:00,62.0,52.0,29.86,NNW,337,1.0,-999.0,69,-99.99,,,-99.99,,2013-07-01 10:52:00,
2013-07-01 06:02:00,62.0,52.0,29.87,North,356,1.0,-999.0,70,-99.99,,,-99.99,,2013-07-01 11:02:00,
2013-07-01 06:11:00,62.0,52.0,29.88,North,356,1.0,-999.0,71,-99.99,,,-99.99,,2013-07-01 11:11:00,
2013-07-01 06:22:00,62.0,52.0,29.88,North,356,1.0,-999.0,71,-99.99,,,-99.99,,2013-07-01 11:22:00,
2013-07-01 06:33:00,62.0,53.0,29.88,North,358,1.0,-999.0,72,-99.99,,,-99.99,,2013-07-01 11:33:00,
2013-07-01 06:43:00,62.0,53.0,29.88,NNE,19,1.0,-999.0,72,-99.99,,,-99.99,,2013-07-01 11:43:00,
2013-07-01 06:52:00,62.0,53.0,29.88,NNE,19,1.0,-999.0,72,-99.99,,,-99.99,,2013-07-01 11:52:00,
2013-07-01 07:01:00,62.0,53.0,29.88,NW,323,1.0,-999.0,72,-99.99,,,-99.99,,2013-07-01 12:01:00,
2013-07-01 07:11:00,62.0,53.0,29.89,East,84,1.0,-999.0,72,-99.99,,,-99.99,,2013-07-01 12:11:00,
2013-07-01 07:22:00,62.0,53.0,29.89,East,84,1.0,-999.0,72,-99.99,,,-99.99,,2013-07-01 12:22:00,
2013-07-01 07:33:00,63.0,54.0,29.89,NNE,16,1.0,-999.0,72,-99.99,,,-99.99,,2013-07-01 12:33:00,
2013-07-01 07:43:00,63.0,53.0,29.89,North,350,2.0,-999.0,71,-99.99,,,-99.99,,2013-07-01 12:43:00,
2013-07-01 07:53:00,63.0,53.0,29.89,North,350,2.0,-999.0,71,-99.99,,,-99.99,,2013-07-01 12:53:00,
2013-07-01 08:02:00,66.0,56.0,29.89,North,2,2.0,-999.0,69,-99.99,,,-99.99,,2013-07-01 13:02:00,
2013-07-01 08:12:00,68.0,56.0,29.90,NNE,19,3.0,-999.0,65,-99.99,,,-99.99,,2013-07-01 13:12:00,
2013-07-01 08:23:00,68.0,56.0,29.90,NNE,19,3.0,-999.0,65,-99.99,,,-99.99,,2013-07-01 13:23:00,
2013-07-01 08:33:00,69.0,56.0,29.91,North,6,3.0,-999.0,63,-99.99,,,-99.99,,2013-07-01 13:33:00,
2013-07-01 08:43:00,68.0,55.0,29.91,North,349,2.0,-999.0,64,-99.99,,,-99.99,,2013-07-01 13:43:00,
2013-07-01 08:53:00,68.0,55.0,29.91,North,349,2.0,-999.0,64,-99.99,,,-99.99,,2013-07-01 13:53:00,
2013-07-01 09:01:00,68.0,56.0,29.91,NNE,18,3.0,-999.0,65,-99.99,,,-99.99,,2013-07-01 14:01:00,
2013-07-01 09:11:00,69.0,57.0,29.91,North,356,4.0,-999.0,65,-99.99,,,-99.99,,2013-07-01 14:11:00,
2013-07-01 09:22:00,69.0,57.0,29.91,North,356,4.0,-999.0,65,-99.99,,,-99.99,,2013-07-01 14:22:00,
2013-07-01 09:34:00,70.0,56.0,29.91,North,4,4.0,-999.0,61,-99.99,,,-99.99,,2013-07-01 14:34:00,
2013-07-01 09:43:00,70.0,55.0,29.91,North,350,4.0,-999.0,60,-99.99,,,-99.99,,2013-07-01 14:43:00,
2013-07-01 09:52:00,70.0,55.0,29.91,North,350,4.0,-999.0,60,-99.99,,,-99.99,,2013-07-01 14:52:00,
2013-07-01 10:02:00,72.0,57.0,29.91,North,351,2.0,-999.0,59,-99.99,,,-99.99,,2013-07-01 15:02:00,
2013-07-01 10:11:00,73.0,57.0,29.91,North,4,3.0,-999.0,57,-99.99,,,-99.99,,2013-07-01 15:11:00,
2013-07-01 10:23:00,73.0,57.0,29.91,North,4,3.0,-999.0,57,-99.99,,,-99.99,,2013-07-01 15:23:00,
2013-07-01 10:34:00,75.0,57.0,29.91,NE,52,3.0,-999.0,53,-99.99,,,-99.99,,2013-07-01 15:34:00,
2013-07-01 10:43:00,75.0,55.0,29.90,NNE,26,4.0,-999.0,50,-99.99,,,-99.99,,2013-07-01 15:43:00,
2013-07-01 10:52:00,75.0,55.0,29.90,NNE,26,4.0,-999.0,50,-99.99,,,-99.99,,2013-07-01 15:52:00,
2013-07-01 11:01:00,75.0,54.0,29.91,NNE,29,4.0,-999.0,48,-99.99,,,-99.99,,2013-07-01 16:01:00,
2013-07-01 11:11:00,75.0,55.0,29.91,East,85,5.0,-999.0,49,-99.99,,,-99.99,,2013-07-01 16:11:00,
2013-07-01 11:22:00,75.0,55.0,29.91,East,85,5.0,-999.0,49,-99.99,,,-99.99,,2013-07-01 16:22:00,
2013-07-01 11:33:00,75.0,55.0,29.91,NE,38,5.0,-999.0,50,-99.99,,,-99.99,,2013-07-01 16:33:00,
2013-07-01 11:44:00,76.0,57.0,29.91,North,355,5.0,-999.0,51,-99.99,,,-99.99,,2013-07-01 16:44:00,
2013-07-01 11:53:00,76.0,57.0,29.91,North,355,5.0,-999.0,51,-99.99,,,-99.99,,2013-07-01 16:53:00,
2013-07-01 12:02:00,76.0,55.0,29.90,North,2,5.0,-999.0,49,-99.99,,,-99.99,,2013-07-01 17:02:00,
2013-07-01 12:12:00,77.0,56.0,29.90,North,353,5.0,-999.0,49,-99.99,,,-99.99,,2013-07-01 17:12:00,
2013-07-01 12:23:00,77.0,56.0,29.90,North,353,5.0,-999.0,49,-99.99,,,-99.99,,2013-07-01 17:23:00,
2013-07-01 12:34:00,78.0,56.0,29.91,NW,316,4.0,-999.0,47,-99.99,,,-99.99,,2013-07-01 17:34:00,
2013-07-01 12:43:00,77.0,57.0,29.90,North,357,5.0,-999.0,50,-99.99,,,-99.99,,2013-07-01 17:43:00,
2013-07-01 12:53:00,77.0,57.0,29.90,North,357,5.0,-999.0,50,-99.99,,,-99.99,,2013-07-01 17:53:00,
2013-07-01 13:02:00,78.0,58.0,29.90,North,352,5.0,-999.0,51,-99.99,,,-99.99,,2013-07-01 18:02:00,
2013-07-01 13:11:00,79.0,58.0,29.90,North,10,5.0,-999.0,48,-99.99,,,-99.99,,2013-07-01 18:11:00,
2013-07-01 13:22:00,79.0,58.0,29.90,North,10,5.0,-999.0,48,-99.99,,,-99.99,,2013-07-01 18:22:00,
2013-07-01 13:33:00,78.0,57.0,29.89,ENE,75,5.0,-999.0,48,-99.99,,,-99.99,,2013-07-01 18:33:00,
2013-07-01 13:43:00,79.0,57.0,29.89,NNE,14,5.0,-999.0,47,-99.99,,,-99.99,,2013-07-01 18:43:00,
2013-07-01 13:53:00,79.0,57.0,29.89,NNE,14,5.0,-999.0,47,-99.99,,,-99.99,,2013-07-01 18:53:00,
2013-07-01 14:02:00,80.0,58.0,29.89,ENE,58,5.0,-999.0,47,-99.99,,,-99.99,,2013-07-01 19:02:00,
2013-07-01 14:11:00,78.0,57.0,29.89,North,10,5.0,-999.0,49,-99.99,,,-99.99,,2013-07-01 19:11:00,
2013-07-01 14:22:00,78.0,57.0,29.89,North,10,5.0,-999.0,49,-99.99,,,-99.99,,2013-07-01 19:22:00,
2013-07-01 14:33:00,79.0,58.0,29.89,East,93,6.0,-999.0,48,-99.99,,,-99.99,,2013-07-01 19:33:00,
2013-07-01 14:44:00,80.0,58.0,29.89,NNE,31,6.0,-999.0,47,-99.99,,,-99.99,,2013-07-01 19:44:00,
2013-07-01 14:52:00,80.0,58.0,29.89,NNE,31,6.0,-999.0,47,-99.99,,,-99.99,,2013-07-01 19:52:00,
2013-07-01 15:02:00,80.0,57.0,29.89,North,351,6.0,-999.0,46,-99.99,,,-99.99,,2013-07-01 20:02:00,
2013-07-01 15:11:00,80.0,57.0,29.89,North,351,6.0,-999.0,46,-99.99,,,-99.99,,2013-07-01 20:11:00,
2013-07-01 15:22:00,80.0,57.0,29.89,North,351,6.0,-999.0,46,-99.99,,,-99.99,,2013-07-01 20:22:00,
2013-07-01 15:34:00,79.0,54.0,29.89,North,10,6.0,-999.0,42,-99.99,,,-99.99,,2013-07-01 20:34:00,
2013-07-01 15:43:00,79.0,53.0,29.89,North,360,7.0,-999.0,41,-99.99,,,-99.99,,2013-07-01 20:43:00,
2013-07-01 15:52:00,79.0,53.0,29.89,North,360,7.0,-999.0,41,-99.99,,,-99.99,,2013-07-01 20:52:00,
2013-07-01 16:02:00,79.0,54.0,29.89,North,360,7.0,-999.0,42,-99.99,,,-99.99,,2013-07-01 21:02:00,
2013-07-01 16:11:00,79.0,54.0,29.88,North,2,5.0,-999.0,42,-99.99,,,-99.99,,2013-07-01 21:11:00,
2013-07-01 16:24:00,79.0,54.0,29.88,North,2,5.0,-999.0,42,-99.99,,,-99.99,,2013-07-01 21:24:00,
2013-07-01 16:34:00,79.0,53.0,29.88,North,356,6.0,-999.0,41,-99.99,,,-99.99,,2013-07-01 21:34:00,
2013-07-01 16:43:00,80.0,53.0,29.88,NNE,17,5.0,-999.0,40,-99.99,,,-99.99,,2013-07-01 21:43:00,
2013-07-01 16:53:00,80.0,53.0,29.88,NNE,17,5.0,-999.0,40,-99.99,,,-99.99,,2013-07-01 21:53:00,
2013-07-01 17:01:00,79.0,53.0,29.88,North,2,5.0,-999.0,41,-99.99,,,-99.99,,2013-07-01 22:01:00,
2013-07-01 17:11:00,78.0,52.0,29.87,NNE,23,7.0,-999.0,40,-99.99,,,-99.99,,2013-07-01 22:11:00,
2013-07-01 17:24:00,78.0,52.0,29.87,NNE,23,7.0,-999.0,40,-99.99,,,-99.99,,2013-07-01 22:24:00,
2013-07-01 17:33:00,78.0,52.0,29.88,North,11,7.0,-999.0,41,-99.99,,,-99.99,,2013-07-01 22:33:00,
2013-07-01 17:43:00,78.0,53.0,29.88,North,6,6.0,-999.0,42,-99.99,,,-99.99,,2013-07-01 22:43:00,
2013-07-01 17:53:00,78.0,53.0,29.88,North,6,6.0,-999.0,42,-99.99,,,-99.99,,2013-07-01 22:53:00,
2013-07-01 18:01:00,78.0,54.0,29.88,North,7,5.0,-999.0,43,-99.99,,,-99.99,,2013-07-01 23:01:00,
2013-07-01 18:11:00,78.0,54.0,29.88,North,359,5.0,-999.0,43,-99.99,,,-99.99,,2013-07-01 23:11:00,
2013-07-01 18:22:00,78.0,54.0,29.88,North,359,5.0,-999.0,43,-99.99,,,-99.99,,2013-07-01 23:22:00,
2013-07-01 18:33:00,77.0,53.0,29.88,North,10,6.0,-999.0,43,-99.99,,,-99.99,,2013-07-01 23:33:00,
2013-07-01 18:44:00,77.0,53.0,29.88,NNE,33,5.0,-999.0,43,-99.99,,,-99.99,,2013-07-01 23:44:00,
2013-07-01 18:53:00,77.0,53.0,29.88,NNE,33,5.0,-999.0,43,-99.99,,,-99.99,,2013-07-01 23:53:00,
2013-07-01 19:01:00,77.0,54.0,29.88,NNE,12,4.0,-999.0,45,-99.99,,,-99.99,,2013-07-02 00:01:00,
2013-07-01 19:12:00,77.0,54.0,29.88,NNE,12,4.0,-999.0,45,-99.99,,,-99.99,,2013-07-02 00:12:00,
2013-07-01 19:22:00,77.0,54.0,29.88,NNE,12,4.0,-999.0,45,-99.99,,,-99.99,,2013-07-02 00:22:00,
2013-07-01 19:34:00,76.0,54.0,29.88,North,11,5.0,-999.0,47,-99.99,,,-99.99,,2013-07-02 00:34:00,
2013-07-01 19:43:00,75.0,54.0,29.89,NNW,335,3.0,-999.0,48,-99.99,,,-99.99,,2013-07-02 00:43:00,
2013-07-01 19:53:00,75.0,54.0,29.89,NNW,335,3.0,-999.0,48,-99.99,,,-99.99,,2013-07-02 00:53:00,
2013-07-01 20:01:00,74.0,54.0,29.89,NE,36,4.0,-999.0,49,-99.99,,,-99.99,,2013-07-02 01:01:00,
2013-07-01 20:11:00,74.0,54.0,29.90,North,351,3.0,-999.0,50,-99.99,,,-99.99,,2013-07-02 01:11:00,
2013-07-01 20:22:00,74.0,54.0,29.90,North,351,3.0,-999.0,50,-99.99,,,-99.99,,2013-07-02 01:22:00,
2013-07-01 20:33:00,73.0,53.0,29.90,NNE,29,3.0,-999.0,49,-99.99,,,-99.99,,2013-07-02 01:33:00,
2013-07-01 20:43:00,73.0,53.0,29.91,NE,44,2.0,-999.0,50,-99.99,,,-99.99,,2013-07-02 01:43:00,
2013-07-01 20:53:00,73.0,53.0,29.91,NE,44,2.0,-999.0,50,-99.99,,,-99.99,,2013-07-02 01:53:00,
2013-07-01 21:02:00,72.0,52.0,29.91,NNW,343,2.0,-999.0,50,-99.99,,,-99.99,,2013-07-02 02:02:00,
2013-07-01 21:11:00,72.0,53.0,29.91,NNE,13,4.0,-999.0,51,-99.99,,,-99.99,,2013-07-02 02:11:00,
2013-07-01 21:22:00,72.0,53.0,29.91,NNE,13,4.0,-999.0,51,-99.99,,,-99.99,,2013-07-02 02:22:00,
2013-07-01 21:33:00,72.0,53.0,29.91,NE,35,3.0,-999.0,52,-99.99,,,-99.99,,2013-07-02 02:33:00,
2013-07-01 21:43:00,71.0,54.0,29.92,NNE,25,2.0,-999.0,54,-99.99,,,-99.99,,2013-07-02 02:43:00,
2013-07-01 21:53:00,71.0,54.0,29.92,NNE,25,2.0,-999.0,54,-99.99,,,-99.99,,2013-07-02 02:53:00,
2013-07-01 22:01:00,71.0,54.0,29.92,NNW,343,3.0,-999.0,56,-99.99,,,-99.99,,2013-07-02 03:01:00,
2013-07-01 22:12:00,71.0,56.0,29.93,NE,56,5.0,-999.0,60,-99.99,,,-99.99,,2013-07-02 03:12:00,
2013-07-01 22:24:00,71.0,56.0,29.93,NE,56,5.0,-999.0,60,-99.99,,,-99.99,,2013-07-02 03:24:00,
2013-07-01 22:32:00,70.0,59.0,29.93,NNE,14,5.0,-999.0,68,-99.99,,,-99.99,,2013-07-02 03:32:00,
2013-07-01 22:43:00,68.0,59.0,29.93,ENE,65,3.0,-999.0,74,-99.99,,,-99.99,,2013-07-02 03:43:00,
2013-07-01 22:53:00,68.0,59.0,29.93,ENE,65,3.0,-999.0,74,-99.99,,,-99.99,,2013-07-02 03:53:00,
2013-07-01 23:02:00,68.0,59.0,29.93,NNE,27,4.0,-999.0,73,-99.99,,,-99.99,,2013-07-02 04:02:00,
2013-07-01 23:11:00,69.0,60.0,29.93,NE,48,4.0,-999.0,72,-99.99,,,-99.99,,2013-07-02 04:11:00,
2013-07-01 23:22:00,69.0,60.0,29.93,NE,48,4.0,-999.0,72,-99.99,,,-99.99,,2013-07-02 04:22:00,
2013-07-01 23:32:00,69.0,60.0,29.93,NE,48,4.0,-999.0,72,-99.99,,,-99.99,,2013-07-02 04:32:00,
2013-07-01 23:42:00,69.0,60.0,29.93,NE,48,4.0,-999.0,72,-99.99,,,-99.99,,2013-07-02 04:42:00,
2013-07-01 23:53:00,69.0,58.0,29.93,ENE,62,4.0,-999.0,69,-99.99,,,-99.99,,2013-07-02 04:53:00,